sat.trackr.live / text

‹ back to catalog

STARLINK-3516

NORAD 51739 · 2022-016AB

PAYLOAD ACTIVE UNKNOWN

§ Identity

Operator
Country
US
Launch date
2022-02-21
Launch site
AFETR
Launch vehicle
Mass (kg)
RCS (m²)

Purposes: comms

External: N2YO · Heavens-Above · Gunter

§ Orbital elements

Epoch: 2026-05-24T19:47:19.354848Z

Period
95.44 min
Inclination
53.2135°
Eccentricity
0.0001150
Mean motion
15.08835761 rev/d
Perigee alt
539.0 km
Apogee alt
540.6 km
Semi-major
6,917.9 km
B*
-7.1902e-6
RAAN
337.3388°
Arg perigee
86.0716°
Mean anomaly
274.0407°
Rev number
23,505

§ Raw data

STARLINK-35161 51739U 22016AB  26144.82452957 -.00000402  00000+0 -71902-5 0  99962 51739  53.2135 337.3388 0001150  86.0716 274.0407 15.08835761235059

JSON: /api/v1/satellites/51739 · /tle

For live sub-satellite position, see the globe view (requires WebGL).

§ Visibility from observer

Set your observer location to see the next 7 days of passes ≥ 10°. The values pass through the URL so the page stays shareable.

No JS? Fill the form by hand. The geolocation button needs JavaScript.